User: anonymous   Login
Location: Charleston
(38.3500°N, 81.6330°W)
Time: 21:49:24
(UTC-04:00)
Language:

Cosmos 2228 - Orbit

View from above orbital plane
View from above orbital plane
View from above satellite
View from above satellite

Ground track
Ground track

The orbit data is extracted from the following two-line orbital elements,

1 22286U 92094A   16244.13947154  .00000336  00000-0  34193-4 0  9991
2 22286  82.5203 287.5317 0020755   8.9312 351.2270 14.87504257279378
Epoch (UTC): 31 August 2016 03:20:50
Eccentricity: 0.0020755
inclination: 82.5203°
perigee height: 591 km
apogee height: 620 km
right ascension of ascending node: 287.5317°
argument of perigee: 8.9312°
revolutions per day: 14.87504257
mean anomaly at epoch: 351.2270°
orbit number at epoch: 27937

The dashed part of the orbit path shows where the satellite is in the earth's shadow,  

DLR